Lake Harding Weather Center

Moon Phase Calendar



Lake Harding Water Level
Online Cameras

 


      

Current Conditions in Valley
5/26/2022 1:34:03 PM

72°F
Feels Like 73
Rain
Humidity
94%
Pressure
30"
Wind
11.2 mph (SSE)
Dew Point
70°F
UV Index
1/10 (Low)
Visibility
6 mi

Hourly Forecast

Date & Time Thu, May 26
1:00 PM
Thu, May 26
2:00 PM
Thu, May 26
3:00 PM
Thu, May 26
4:00 PM
Thu, May 26
5:00 PM
Thu, May 26
6:00 PM
Thu, May 26
7:00 PM
Thu, May 26
8:00 PM
Thu, May 26
9:00 PM
Thu, May 26
10:00 PM
Thu, May 26
11:00 PM
Fri, May 27
12:00 AM
Fri, May 27
1:00 AM
Fri, May 27
2:00 AM
Fri, May 27
3:00 AM
Fri, May 27
4:00 AM
Fri, May 27
5:00 AM
Fri, May 27
6:00 AM
Fri, May 27
7:00 AM
Fri, May 27
8:00 AM
Fri, May 27
9:00 AM
Fri, May 27
10:00 AM
Fri, May 27
11:00 AM
Fri, May 27
12:00 PM
Fri, May 27
1:00 PM
Fri, May 27
2:00 PM
Fri, May 27
3:00 PM
Fri, May 27
4:00 PM
Fri, May 27
5:00 PM
Fri, May 27
6:00 PM
Fri, May 27
7:00 PM
Fri, May 27
8:00 PM
Fri, May 27
9:00 PM
Fri, May 27
10:00 PM
Fri, May 27
11:00 PM
Sat, May 28
12:00 AM
Sat, May 28
1:00 AM
Sat, May 28
2:00 AM
Sat, May 28
3:00 AM
Sat, May 28
4:00 AM
Sat, May 28
5:00 AM
Sat, May 28
6:00 AM
Sat, May 28
7:00 AM
Sat, May 28
8:00 AM
Sat, May 28
9:00 AM
Sat, May 28
10:00 AM
Sat, May 28
11:00 AM
Sat, May 28
12:00 PM
Condition
Rain

Rain

Rain

Rain

Rain

Rain

Rain

Rain

Rain

Rain

Clouds

Clouds

Clouds

Clouds

Clouds

Clouds

Clouds

Clouds

Clouds

Clouds

Clear

Clear

Clear

Clear

Clear

Clear

Clear

Clear

Clear

Clear

Clear

Clouds

Clouds

Clouds

Clouds

Clouds

Clouds

Clouds

Clear

Clear

Clear

Clear

Clear

Clear

Clear

Clear

Clear

Clear
Temperature 71°F72°F72°F72°F71°F71°F67°F65°F64°F65°F64°F64°F63°F63°F62°F62°F62°F61°F61°F64°F67°F71°F75°F78°F80°F80°F80°F80°F80°F79°F76°F72°F69°F69°F68°F68°F64°F62°F61°F60°F59°F58°F59°F63°F68°F72°F76°F79°F
Feels Like 73°F73°F73°F73°F73°F72°F68°F66°F65°F65°F65°F64°F64°F63°F63°F63°F62°F62°F61°F64°F68°F72°F75°F78°F80°F80°F80°F80°F80°F79°F76°F72°F69°F68°F68°F67°F64°F62°F60°F59°F59°F58°F59°F63°F68°F72°F76°F78°F
Cloudiness 100%100%100%100%100%100%100%100%100%100%100%100%89%79%21%24%24%24%23%21%0%0%0%0%0%0%0%0%0%0%5%13%78%81%86%88%77%65%0%0%0%0%0%0%0%0%0%0%
Visibility 6 mi6 mi6 mi6 mi6 mi6 mi1 mi6 mi6 mi6 mi6 mi6 mi6 mi6 mi6 mi6 mi6 mi6 mi6 mi6 mi6 mi6 mi6 mi6 mi6 mi6 mi6 mi6 mi6 mi6 mi6 mi6 mi6 mi6 mi6 mi6 mi6 mi6 mi6 mi6 mi6 mi6 mi6 mi6 mi6 mi6 mi6 mi6 mi
Precipitation 100%100%94%98%99%99%100%100%83%83%83%81%73%73%0%0%0%0%0%0%0%0%0%0%0%0%0%0%0%0%0%0%0%0%0%0%0%0%0%0%0%0%0%0%0%0%0%0%
Humidity 95%94%93%93%93%93%97%98%99%98%98%98%98%99%99%99%98%98%98%96%90%75%59%50%41%36%37%40%41%46%54%66%68%70%69%70%77%83%87%91%94%95%94%84%72%62%55%49%
Dew Point 70°F70°F70°F70°F69°F69°F65°F64°F64°F64°F63°F63°F63°F62°F62°F61°F61°F60°F60°F62°F64°F63°F60°F57°F54°F51°F52°F54°F54°F56°F58°F59°F58°F58°F57°F57°F57°F57°F56°F57°F57°F57°F57°F58°F58°F58°F58°F58°F
Pressure 30"30"30"30"29.97"29.94"29.94"29.94"29.94"29.94"29.97"29.97"29.94"29.94"29.91"29.91"29.91"29.91"29.91"29.94"29.94"29.94"29.91"29.91"29.91"29.91"29.88"29.88"29.88"29.88"29.88"29.88"29.91"29.91"29.91"29.91"29.91"29.94"29.94"29.91"29.91"29.94"29.94"29.97"29.97"29.97"29.97"29.97"
Wind Speed 10 mph11.2 mph12.2 mph12.5 mph13 mph9 mph8.5 mph3.2 mph2.5 mph0.2 mph1.9 mph2.8 mph2.2 mph2.7 mph3 mph3.8 mph4.3 mph4.5 mph4.6 mph5.4 mph7.7 mph9.2 mph9.7 mph10.6 mph12.2 mph13 mph12.5 mph11.5 mph10.9 mph9.4 mph8.3 mph6.3 mph5.3 mph4.7 mph4 mph4.4 mph4.9 mph4.9 mph4.7 mph4.2 mph3.5 mph3.5 mph3.4 mph3.4 mph3.6 mph3.4 mph3.4 mph3.7 mph
Wind
Direction
150°
SSE
160°
SSE
169°
S
174°
S
176°
S
199°
SSW
249°
WSW
241°
WSW
232°
SW
30°
NNE
168°
SSE
140°
SE
181°
S
197°
SSW
182°
S
166°
SSE
175°
S
183°
S
199°
SSW
210°
SSW
226°
SW
243°
WSW
252°
WSW
250°
WSW
247°
WSW
247°
WSW
249°
WSW
252°
WSW
251°
WSW
247°
WSW
244°
WSW
240°
WSW
262°
W
298°
WNW
324°
NW
331°
NNW
337°
NNW
350°
N
352°
N
354°
N
353°
N
350°
N
350°
N
347°
NNW
347°
NNW
333°
NNW
313°
NW
306°
NW

Daily Forecast

Date High Low Precip. Humidity
Today
May 26

Rain
72 °F
64 °F
100%
95%
Friday
May 27

Clear
80 °F
61 °F
81%
41%
Saturday
May 28

Clear
85 °F
59 °F
0%
42%
Sunday
May 29

Clear
88 °F
64 °F
0%
38%
Monday
May 30

Rain
91 °F
66 °F
37%
38%
Tuesday
May 31

Clear
90 °F
66 °F
25%
39%
Wednesday
Jun 1

Clear
94 °F
69 °F
14%
30%
Thursday
Jun 2

Rain
92 °F
67 °F
83%
35%
Friday
Jun 3

Rain
91 °F
65 °F
69%
41%
Saturday
Jun 4

Rain
87 °F
66 °F
96%
56%
Sunday
Jun 5

Rain
90 °F
69 °F
48%
46%
Monday
Jun 6

Clear
98 °F
71 °F
0%
35%
Tuesday
Jun 7

Rain
101 °F
72 °F
100%
36%
Wednesday
Jun 8

Rain
95 °F
69 °F
100%
36%
Thursday
Jun 9

Clouds
94 °F
68 °F
80%
44%
Friday
Jun 10

Rain
85 °F
70 °F
82%
59%

Temperature 8-14 Day Outlook



Precipitation 8-14 Day Outlook




Quick Links
Lake Harding News
Lake Harding Photos
Lake Harding Videos




About Us
Contact Us
Site Map
Search Site
Advertise With Us
   
www.LakeHardingNews.com
THE LAKE HARDING WEBSITE

Copyright 2022, Lakes Online
Privacy    |    Legal